Nellis AFB, NV

10:56 AM PST on November 18, 2017 (GMT -0800)
Nellis Air Force Base

Weather History for KLSV - November, 2011

Change the Weather History Date:

Friday, November 4, 2011

  Actual Average Record
Temperature  
Mean Temperature 54 °F -  
Max Temperature 64 °F 69 °F 85 °F (2010)
Min Temperature 44 °F 45 °F 37 °F (2003)
Degree Days  
Heating Degree Days 11    
Growing Degree Days 4 (Base 50)    
Moisture  
Dew Point 34 °F    
Average Humidity 53    
Maximum Humidity 81    
Minimum Humidity 18    
Precipitation  
Precipitation 0.09 in - - ()
Sea Level Pressure  
Sea Level Pressure 29.68 in    
Wind  
Wind Speed 14 mph (SW)    
Max Wind Speed 25 mph    
Max Gust Speed 33 mph    
Visibility 10 miles    
Events Rain    
Averages and records for this station are not official NWS values.
T = Trace of Precipitation, MM = Missing Value Source: NWS Daily Summary

Daily Weather History Graph

Daily Weather History Graph

Search for Another Location

Airport or City:

Trip Planner

Search our weather history database for the weather conditions in past years. The results will help you decide how hot, cold, wet, or windy it might be!

Date:

Astronomy

Nov. 04, 2011 Rise Set
Actual Time 7:05 AM PDT 5:41 PM PDT
Civil Twilight 6:39 AM PDT 6:07 PM PDT
Nautical Twilight 6:08 AM PDT 6:38 PM PDT
Astronomical Twilight 5:38 AM PDT 7:08 PM PDT
Moon 2:26 PM PDT (11/4) 1:31 AM PDT (11/4)
Length of Visible Light 11h 28m
Length of Day
10h 35m
Waxing Gibbous, 70% of the Moon is Illuminated
Nov 4
Waxing Gibbous
Nov 10
Full
Nov 18
Last Quarter
Nov 24
New
Dec 2
First Quarter

Hourly Weather History & Observations

Time (PDT) Temp. Windchill Dew Point Humidity Pressure Visibility Wind Dir Wind Speed Gust Speed Precip Events Conditions
12:55 AM 58.1 °F - 16.3 °F 20% 29.72 in 10.0 mi ENE 11.5 mph - N/A   Clear
1:55 AM 58.6 °F - 15.4 °F 18% 29.70 in 10.0 mi ENE 10.4 mph - N/A   Clear
2:55 AM 58.1 °F - 16.3 °F 20% 29.68 in 10.0 mi Calm Calm - N/A   Clear
3:55 AM 58.6 °F - 17.2 °F 20% 29.66 in 10.0 mi South 13.8 mph - N/A   Clear
4:55 AM 57.2 °F - 21.2 °F 25% 29.66 in 10.0 mi SW 16.1 mph - N/A   Clear
5:55 AM 56.7 °F - 29.8 °F 36% 29.66 in 10.0 mi South 17.3 mph - N/A   Clear
6:55 AM 56.8 °F - 34.7 °F 43% 29.67 in 10.0 mi South 19.6 mph 26.5 mph N/A   Clear
7:55 AM 56.5 °F - 36.5 °F 47% 29.69 in 10.0 mi SSW 17.3 mph - N/A   Clear
8:55 AM 58.6 °F - 36.5 °F 44% 29.69 in 10.0 mi SSW 18.4 mph - N/A   Clear
9:55 AM 60.8 °F - 36.3 °F 40% 29.69 in 10.0 mi SSW 18.4 mph - N/A   Clear
10:55 AM 62.6 °F - 35.6 °F 37% 29.69 in 10.0 mi SSW 18.4 mph - N/A   Clear
11:55 AM 63.5 °F - 35.1 °F 35% 29.67 in 10.0 mi South 18.4 mph 27.6 mph N/A   Clear
12:55 PM 64.0 °F - 34.7 °F 34% 29.63 in 10.0 mi South 16.1 mph 23.0 mph N/A   Mostly Cloudy
1:55 PM 61.5 °F - 34.0 °F 36% 29.62 in 10.0 mi WSW 25.3 mph - N/A   Partly Cloudy
2:55 PM 59.0 °F - 31.1 °F 35% 29.62 in 10.0 mi WSW 21.9 mph 33.4 mph N/A   Clear
3:24 PM 57.2 °F - 33.8 °F 41% 29.63 in 10.0 mi WSW 24.2 mph - N/A Rain Light Rain
3:55 PM 53.2 °F - 40.1 °F 61% 29.66 in 10.0 mi West 13.8 mph - 0.00 in Rain Light Rain
4:06 PM 51.8 °F - 41.0 °F 67% 29.65 in 10.0 mi NW 17.3 mph - N/A Rain Light Rain
4:55 PM 50.4 °F - 40.1 °F 68% 29.67 in 10.0 mi WNW 15.0 mph - 0.01 in   Light Drizzle
5:55 PM 48.0 °F - 41.0 °F 77% 29.67 in 10.0 mi South 12.7 mph - 0.05 in Rain Light Rain
6:09 PM 48.2 °F - 41.0 °F 76% 29.66 in 10.0 mi South 10.4 mph - N/A Rain Light Rain
6:13 PM 48.2 °F - 39.2 °F 71% 29.66 in 10.0 mi SSW 10.4 mph - N/A Rain Light Rain
6:15 PM 48.2 °F - 39.2 °F 71% 29.66 in 10.0 mi SW 12.7 mph - N/A   Mostly Cloudy
6:28 PM 50.0 °F - 37.4 °F 62% 29.67 in 10.0 mi West 20.7 mph 26.5 mph N/A Rain Light Rain
6:37 PM 50.0 °F - 39.2 °F 66% 29.68 in 10.0 mi WNW 13.8 mph 26.5 mph N/A Rain Light Rain
6:55 PM 48.6 °F - 42.3 °F 79% 29.71 in 10.0 mi NNE 6.9 mph - 0.00 in Rain Light Rain
7:55 PM 46.8 °F - 41.0 °F 80% 29.70 in 10.0 mi NNE 11.5 mph - 0.03 in Rain Light Rain
8:55 PM 46.8 °F - 41.2 °F 81% 29.72 in 10.0 mi ENE 10.4 mph - N/A   Overcast
9:55 PM 45.5 °F 39.6 °F 39.6 °F 80% 29.73 in 10.0 mi NE 12.7 mph - N/A   Scattered Clouds
10:55 PM 44.8 °F 41.6 °F 38.8 °F 80% 29.73 in 10.0 mi ENE 5.8 mph - N/A   Scattered Clouds
11:55 PM 44.4 °F 42.9 °F 38.7 °F 80% 29.73 in 10.0 mi NE 3.5 mph - N/A   Clear